Location: El Mouella
(16.4949°N, 9.1594°W)
Time: 02:28:47
(UTC+00:00)

H-2A R/B - Pass Details

Date: 27 September 2020
Orbit: 734 x 836 km, 98.2° (Epoch: 20 October)

Event Time Altitude Azimuth Distance (km) Brightness Sun altitude
Exits shadow 19:29:35 18° 128° (SE) 1,767 3.4 -15.5°
Maximum altitude 19:32:33 33° 75° (ENE) 1,237 2.6 -16.2°
Drops below altitude 10° 19:37:01 10° 12° (NNE) 2,288 4.4 -17.3°
Sets 19:39:32 0° 3° (N) 3,231 5.3 -17.9°
